Retour au catalogue

TITAN 3C TRANSTAGE DEB

ActifHEO
NORAD 26525·DEBRIS·🇺🇸 United States

Lancé Dec 21, 1965 depuis Cape Canaveral Space Force Station

Loading…

Prochains Passages (prochaines 24 heures)

TLE

FraisSource: Space-Track

Époque: Sep 11, 2026, 22:11 UTC

1 26525U 65108AL  26254.92498073  .00000833  00000-0  59873-2 0  9999
2 26525  26.1557 121.8864 6716977  93.9295 348.3009  2.83390773273188

Suivez TITAN 3C TRANSTAGE DEB en temps réel avec AllMySat

Download on the App Store